2022/12/28 00:00:00,56.5,-0.7
2022/12/28 00:10:00,56.5,-0.8
2022/12/28 00:20:00,56.4,-0.9
2022/12/28 00:30:00,56.4,-0.8
2022/12/28 00:40:00,56.4,-1.1
2022/12/28 00:50:00,56.3,-0.9
2022/12/28 01:00:00,56.3,-0.8
2022/12/28 01:10:00,56.3,-0.9
2022/12/28 01:20:00,56.2,-0.7
2022/12/28 01:30:00,56.2, 0.3
2022/12/28 01:40:00,56.1,-0.6
2022/12/28 01:50:00,56.1,-0.4
2022/12/28 02:00:00,56.0,-0.8
2022/12/28 02:10:00,56.0,-0.4
2022/12/28 02:20:00,55.9, 0.0
2022/12/28 02:30:00,55.8,-0.3
2022/12/28 02:40:00,55.8,-0.4
2022/12/28 02:50:00,55.7,-0.7
2022/12/28 03:00:00,55.6,-0.1
2022/12/28 03:10:00,55.6,-0.1
2022/12/28 03:20:00,55.6,-0.2
2022/12/28 03:30:00,55.5,-0.3
2022/12/28 03:40:00,55.5,-0.3
2022/12/28 03:50:00,55.5,-0.1
2022/12/28 04:00:00,55.4,-0.2
2022/12/28 04:10:00,55.4, 0.0
2022/12/28 04:20:00,55.4, 0.0
2022/12/28 04:30:00,55.4, 0.0
2022/12/28 04:40:00,55.4,-0.2
2022/12/28 04:50:00,55.4, 0.0
2022/12/28 05:00:00,55.4, 0.1
2022/12/28 05:10:00,55.3, 0.0
2022/12/28 05:20:00,55.2, 0.0
2022/12/28 05:30:00,55.2,-0.3
2022/12/28 05:40:00,55.2,-0.2
2022/12/28 05:50:00,55.2, 0.0
2022/12/28 06:00:00,55.1,-0.1
2022/12/28 06:10:00,55.0,-0.3
2022/12/28 06:20:00,55.0, 0.1
2022/12/28 06:30:00,54.8, 0.2
2022/12/28 06:40:00,54.7, 0.0
2022/12/28 06:50:00,54.7, 0.6
2022/12/28 07:00:00,54.7, 0.3
2022/12/28 07:10:00,54.6, 0.3
2022/12/28 07:20:00,54.5, 0.2
2022/12/28 07:30:00,54.5, 0.1
2022/12/28 07:40:00,54.4, 0.4
2022/12/28 07:50:00,54.4, 0.3
2022/12/28 08:00:00,54.4, 0.5
2022/12/28 08:10:00,54.3, 0.4
2022/12/28 08:20:00,54.2, 0.2
2022/12/28 08:30:00,54.2, 0.5
2022/12/28 08:40:00,54.2, 0.8
2022/12/28 08:50:00,54.1, 0.8
2022/12/28 09:00:00,54.1, 0.9
2022/12/28 09:10:00,54.0, 1.1
2022/12/28 09:20:00,53.9, 1.1
2022/12/28 09:30:00,54.0, 1.5
2022/12/28 09:40:00,54.0, 1.8
2022/12/28 09:50:00,53.8, 1.0
2022/12/28 10:00:00,53.7, 2.0
2022/12/28 10:10:00,53.6, 1.8
2022/12/28 10:20:00,53.6, 2.2
2022/12/28 10:30:00,53.4, 2.3
2022/12/28 10:40:00,53.2, 2.1
2022/12/28 10:50:00,53.0, 2.2
2022/12/28 11:00:00,53.0, 2.4
2022/12/28 11:10:00,52.7, 2.4
2022/12/28 11:20:00,52.8, 2.4
2022/12/28 11:30:00,52.6, 2.2
2022/12/28 11:40:00,52.5, 2.8
2022/12/28 11:50:00,52.4, 2.9
2022/12/28 12:00:00,52.5, 2.6
2022/12/28 12:10:00,52.5, 3.7
2022/12/28 12:20:00,52.1, 3.1
2022/12/28 12:30:00,52.0, 3.0
2022/12/28 12:40:00,52.0, 2.9
2022/12/28 12:50:00,52.0, 2.4
2022/12/28 13:00:00,52.1, 2.4
2022/12/28 13:10:00,52.2, 3.0
2022/12/28 13:20:00,52.3, 3.5
2022/12/28 13:30:00,52.2, 3.3
2022/12/28 13:40:00,52.2, 3.0
2022/12/28 13:50:00,52.3, 2.4
2022/12/28 14:00:00,52.2, 2.6
2022/12/28 14:10:00,51.8, 2.3
2022/12/28 14:20:00,51.7, 2.1
2022/12/28 14:30:00,51.7, 2.0
2022/12/28 14:40:00,51.7, 1.9
2022/12/28 14:50:00,51.7, 2.2
2022/12/28 15:00:00,51.6, 2.0
2022/12/28 15:10:00,51.5, 2.2
2022/12/28 15:20:00,51.5, 1.9
2022/12/28 15:30:00,51.7, 1.8
2022/12/28 15:40:00,51.7, 1.8
2022/12/28 15:50:00,51.3, 1.5
2022/12/28 16:00:00,51.3, 1.6
2022/12/28 16:10:00,51.1, 1.6
2022/12/28 16:20:00,50.9, 1.1
2022/12/28 16:30:00,50.8, 1.1
2022/12/28 16:40:00,50.6, 1.0
2022/12/28 16:50:00,50.4, 0.8
2022/12/28 17:00:00,50.3, 0.8
2022/12/28 17:10:00,50.3, 0.7
2022/12/28 17:20:00,50.2, 0.7
2022/12/28 17:30:00,50.0, 0.7
2022/12/28 17:40:00,50.0, 0.7
2022/12/28 17:50:00,50.0, 0.7
2022/12/28 18:00:00,50.0, 0.5
2022/12/28 18:10:00,49.9, 0.6
2022/12/28 18:20:00,49.8, 0.4
2022/12/28 18:30:00,49.7, 0.4
2022/12/28 18:40:00,49.6, 0.3
2022/12/28 18:50:00,49.7, 0.3
2022/12/28 19:00:00,49.6, 0.2
2022/12/28 19:10:00,49.6, 0.5
2022/12/28 19:20:00,49.6, 0.5
2022/12/28 19:30:00,49.7, 0.5
2022/12/28 19:40:00,49.6, 0.5
2022/12/28 19:50:00,49.5, 0.4
2022/12/28 20:00:00,49.5, 0.3
2022/12/28 20:10:00,49.5, 0.3
2022/12/28 20:20:00,49.5, 0.1
2022/12/28 20:30:00,49.5,-0.2
2022/12/28 20:40:00,49.4, 0.0
2022/12/28 20:50:00,49.3, 0.1
2022/12/28 21:00:00,49.3,-0.2
2022/12/28 21:10:00,49.2,-0.5
2022/12/28 21:20:00,49.1,-0.4
2022/12/28 21:30:00,49.1,-0.4
2022/12/28 21:40:00,49.1,-0.3
2022/12/28 21:50:00,49.0,-0.4
2022/12/28 22:00:00,49.0,-0.6
2022/12/28 22:10:00,49.0,-0.7
2022/12/28 22:20:00,48.9,-0.6
2022/12/28 22:30:00,48.9,-0.5
2022/12/28 22:40:00,48.8,-0.6
2022/12/28 22:50:00,48.8,-0.5
2022/12/28 23:00:00,48.7,-0.8
2022/12/28 23:10:00,48.7,-0.8
2022/12/28 23:20:00,48.6,-0.9
2022/12/28 23:30:00,48.6,-0.7
2022/12/28 23:40:00,48.6,-0.9
2022/12/28 23:50:00,48.6,-0.4
